369  
ASUS43 KLSX 170757  
RWRMO  
 
WEATHER SUMMARY FOR MISSOURI  
NATIONAL WEATHER SERVICE SPRINGFIELD MO  
300 AM CDT SAT APR 17 2021  
 
NOTE: "FAIR" INDICATES FEW OR NO CLOUDS BELOW 12,000 FEET WITH NO  
SIGNIFICANT WEATHER AND/OR S TO VISIBILITY
.  
CURRENT SKY AND/OR WEATHER CONDITIONS ARE NOT AVAILABLE FOR  
CHILLICOTHE AND FARMINGTON.  
 
MOZ001>031-035>038-043-044-053-054-170900-   
..NORTHERN AND WESTERN MISSOURI
 
 
 
CITY SKY/WX TMP DP RH WIND PRES REMARKS
 
KANSAS CTY INT CLOUDY 43 40 89 NW6 30.04F FOG  
KANSAS C DTWN CLOUDY 43 40 89 NW6 30.04F  
LEE'S SUMMIT LGT RAIN 42 42 100 NW6 30.04F  
 

 
MOZ066>068-077>081-088>096-101>105-170900-   
..SOUTHWEST MISSOURI
 
 
 
CITY SKY/WX TMP DP RH WIND PRES REMARKS
 
SPRINGFIELD CLOUDY 45 44 97 N8 29.97S  
JOPLIN LGT RAIN 45 45 100 N8 30.01S FOG  
 

 
MOZ032>034-039>042-045>050-055>058-069>072-170900-   
..CENTRAL MISSOURI
 
 
 
CITY SKY/WX TMP DP RH WIND PRES REMARKS
 
COLUMBIA CLOUDY 45 43 93 NW7 29.98F FOG  
JEFFERSON CITY CLOUDY 48 43 82 NW5 29.99F  
ROLLA CLOUDY 45 43 93 N5 29.97F FOG  
WARRENSBURG LGT RAIN 41 41 100 W5 30.03S  
 

 
MOZ051-052-059>065-170900-   
..EAST CENTRAL MISSOURI
 
 
 
CITY SKY/WX TMP DP RH WIND PRES REMARKS
 
ST LOUIS INTL LGT RAIN 50 44 80 W9 29.95F  
SPIRIT OF STL CLOUDY 48 45 89 W6 29.95F  
ST CHARLES LGT RAIN 51 42 71 W8 29.94F  
 

 
MOZ072>076-082>087-097>100-106>115-170900-   
..SOUTH CENTRAL AND SOUTHEAST MISSOURI
 
 
 
CITY SKY/WX TMP DP RH WIND PRES REMARKS
 
CAPE GIRARDEAU CLOUDY 51 43 74 N3 29.93F  
POPLAR BLUFF CLOUDY 50 46 86 N5 29.94F  
WEST PLAINS CLOUDY 47 44 90 NE6 29.95F  
 

 
 
 
CLICK HERE TO GO TO PREVIOUS BULLETINS.

The Nexlab MO Page Main Text Page